DELTA 1 DEB, 21371

Orbit data source: Space-Track

DELTA 1 DEB, 21371 is space debris in SSO originally from a launch on Thu, 12 Jun 1975 UTC launched from the Air Force Western Test Range (AFWTR). Debris objects in space refer to the collection of defunct objects orbiting the Earth. Examples of debris include non-operational satellites, rocket bodies, and fragments generated from explosions, collisions, or faulty payload assembly.

Loading next visibility...
Identifier
21371, 1975-052CR
Orbit
SSO
Country
Flag of USUS
Related business
Manufacturer
Unknown
Mission
Spacecraft
Bus & Motor
Unknown
Mass
Unknown
Launch date (UTC)
1975-06-12 (51 years ago)
Launch vehicle
Unknown
Launch site
Air Force Western Test Range (AFWTR)
Object type
Payload
Rocket body
Debris
Shape & HBR
Unknown shape, 0.1 m
Radar Cross Section
Small (<0.1 m²)

Expand to show TLE details & history
Last TLE update: 11 hours ago

TLE from 11 hours ago
0 DELTA 1 DEB
1 21371U 75052CR  26124.67509264 -.00000002  00000-0  96780-4 0  9994
2 21371  99.7750 197.2767 0152237 212.7144 302.2863 13.14310952676263
Epoch: 2026-05-04T16:12Z
TLE epoch observation values (Epoch: 2026-05-04T16:12:08.004Z)
Latitude
26.10905°
Longitude
-83.49887°
Altitude
1,149.131 km
Speed
7.31 km/s
True Right ascension
01h 28m 22s
True Declination
25° 58' 50"
Sunlit
Object was in daylight at epoch
Visualization orbit readout
Latitude
Unknown
Longitude
Unknown
Altitude
Unknown
Speed
Unknown
Apparent Right ascension
Unknown
Apparent Declination
Unknown
Sunlit
N/A
Visualization observer readout
Local Sidereal Time
11:20:14
Azimuth
Unknown
Elevation
Unknown
Doppler factor
Unknown
Orbital elements
Apogee altitude
1,319.307 km
Perigee altitude
1,088.454 km
Semi-major axis
7,582.018 km
Eccentricity
0.01522
Inclination
99.775°
RAAN
197.2767°
Arg. of periapsis
212.7144°
True anomaly
300.79654°
Mean anomaly
302.2863°
Eccentric anomaly
301.54292°
Mean motion
3.2875 °/min
Orbital period
109.51 mins
BSTAR
0.00009678
Loading maneuver chart data...
Computing Atmospheric mass density...
Loading historical data...
Loading historical data...
Loading historical data...
Loading historical data...
Loading historical data...
Loading historical data...
Loading historical data...

Documentation

Showing up to 5 results
|